Time,TemperatureF,DewpointF,PressureIn,WindDirection,WindDirectionDegrees,WindSpeedMPH,WindSpeedGustMPH,Humidity,HourlyPrecipIn,Conditions,Clouds,dailyrainin,SoftwareType,DateUTC
2013-03-06 00:05:00,29.0,24.0,29.90,NNE,22,12.0,12.0,83,0.00,,,0.00,TxWx,2013-03-06 05:05:00,
2013-03-06 00:10:00,30.0,24.0,29.89,NNE,22,7.0,9.0,82,0.00,,,0.00,TxWx,2013-03-06 05:10:00,
2013-03-06 00:15:00,30.0,24.0,29.89,NNE,22,13.0,13.0,82,0.00,,,0.00,TxWx,2013-03-06 05:15:00,
2013-03-06 00:21:00,30.0,24.0,29.88,NE,45,10.0,11.0,82,0.00,,,0.00,TxWx,2013-03-06 05:21:00,
2013-03-06 00:27:00,29.0,23.0,29.89,NE,45,13.0,13.0,82,0.00,,,0.00,TxWx,2013-03-06 05:27:00,
2013-03-06 00:32:00,31.0,25.0,29.89,NNE,22,12.0,13.0,83,0.00,,,0.00,TxWx,2013-03-06 05:32:00,
2013-03-06 00:37:00,31.0,25.0,29.89,NE,45,9.0,12.0,81,0.00,,,0.00,TxWx,2013-03-06 05:37:00,
2013-03-06 00:42:00,29.0,23.0,29.89,NNE,22,6.0,6.0,80,0.00,,,0.00,TxWx,2013-03-06 05:42:00,
2013-03-06 00:47:00,27.0,21.0,29.89,NNE,22,9.0,11.0,82,0.00,,,0.00,TxWx,2013-03-06 05:47:00,
2013-03-06 00:52:00,28.0,23.0,29.89,NNE,22,11.0,13.0,84,0.00,,,0.00,TxWx,2013-03-06 05:52:00,
2013-03-06 00:57:00,30.0,25.0,29.89,NNE,22,8.0,11.0,86,0.00,,,0.00,TxWx,2013-03-06 05:57:00,
2013-03-06 01:02:00,30.0,24.0,29.89,NNE,22,10.0,11.0,82,0.00,,,0.00,TxWx,2013-03-06 06:02:00,
2013-03-06 01:07:00,30.0,24.0,29.89,NNE,22,7.0,7.0,82,0.00,,,0.00,TxWx,2013-03-06 06:07:00,
2013-03-06 01:12:00,30.0,24.0,29.89,NE,45,6.0,8.0,82,0.00,,,0.00,TxWx,2013-03-06 06:12:00,
2013-03-06 01:17:00,30.0,25.0,29.89,NNE,22,5.0,6.0,82,0.00,,,0.00,TxWx,2013-03-06 06:17:00,
2013-03-06 01:23:00,31.0,25.0,29.89,NNE,22,11.0,11.0,81,0.00,,,0.00,TxWx,2013-03-06 06:23:00,
2013-03-06 01:28:00,30.0,24.0,29.89,NNW,337,7.0,7.0,81,0.00,,,0.00,TxWx,2013-03-06 06:28:00,
2013-03-06 01:33:00,30.0,24.0,29.89,NNE,22,6.0,10.0,82,0.00,,,0.00,TxWx,2013-03-06 06:33:00,
2013-03-06 01:38:00,30.0,24.0,29.90,ENE,67,6.0,10.0,82,0.00,,,0.00,TxWx,2013-03-06 06:38:00,
2013-03-06 01:43:00,29.0,23.0,29.89,NNE,22,6.0,12.0,82,0.00,,,0.00,TxWx,2013-03-06 06:43:00,
2013-03-06 01:48:00,28.0,23.0,29.89,North,0,7.0,10.0,84,0.00,,,0.00,TxWx,2013-03-06 06:48:00,
2013-03-06 01:53:00,27.0,22.0,29.89,NNE,22,7.0,8.0,85,0.00,,,0.00,TxWx,2013-03-06 06:53:00,
2013-03-06 01:58:00,27.0,23.0,29.89,NNE,22,9.0,12.0,86,0.00,,,0.00,TxWx,2013-03-06 06:58:00,
2013-03-06 02:03:00,29.0,24.0,29.89,NNE,22,8.0,10.0,86,0.00,,,0.00,TxWx,2013-03-06 07:03:00,
2013-03-06 02:08:00,29.0,24.0,29.89,NNE,22,11.0,11.0,86,0.00,,,0.00,TxWx,2013-03-06 07:08:00,
2013-03-06 02:15:00,31.0,25.0,29.89,NNE,22,9.0,10.0,83,0.00,,,0.00,TxWx,2013-03-06 07:15:00,
2013-03-06 02:20:00,32.0,26.0,29.88,NE,45,9.0,10.0,81,0.00,,,0.00,TxWx,2013-03-06 07:20:00,
2013-03-06 02:25:00,31.0,25.0,29.89,NNE,22,7.0,9.0,80,0.00,,,0.00,TxWx,2013-03-06 07:25:00,
2013-03-06 02:30:00,31.0,24.0,29.88,NNE,22,8.0,8.0,80,0.00,,,0.00,TxWx,2013-03-06 07:30:00,
2013-03-06 02:35:00,31.0,24.0,29.88,NNE,22,8.0,9.0,80,0.00,,,0.00,TxWx,2013-03-06 07:35:00,
2013-03-06 02:41:00,31.0,25.0,29.88,NE,45,6.0,7.0,80,0.00,,,0.00,TxWx,2013-03-06 07:41:00,
2013-03-06 02:46:00,31.0,25.0,29.89,NE,45,7.0,10.0,81,0.00,,,0.00,TxWx,2013-03-06 07:46:00,
2013-03-06 02:51:00,31.0,25.0,29.89,NE,45,6.0,6.0,80,0.00,,,0.00,TxWx,2013-03-06 07:51:00,
2013-03-06 02:56:00,31.0,24.0,29.88,NE,45,8.0,9.0,80,0.00,,,0.00,TxWx,2013-03-06 07:56:00,
2013-03-06 03:01:00,31.0,25.0,29.89,NNE,22,6.0,6.0,80,0.00,,,0.00,TxWx,2013-03-06 08:01:00,
2013-03-06 03:06:00,31.0,25.0,29.88,NE,45,7.0,7.0,82,0.00,,,0.00,TxWx,2013-03-06 08:06:00,
2013-03-06 03:08:00,34.0,25.0,29.93,NNE,22,6.0,7.0,73,0.00,,,0.00,TxWx,2013-03-06 08:08:00,
2013-03-06 03:09:00,34.0,25.0,29.92,NNE,22,8.0,10.0,73,0.00,,,0.00,TxWx,2013-03-06 08:09:00,
2013-03-06 03:10:00,34.0,25.0,29.92,North,0,11.0,14.0,74,0.00,,,0.00,TxWx,2013-03-06 08:10:00,
2013-03-06 03:11:00,32.0,26.0,29.88,NE,45,7.0,7.0,83,0.00,,,0.00,TxWx,2013-03-06 08:11:00,
2013-03-06 03:12:00,33.0,25.0,29.93,North,0,10.0,11.0,75,0.00,,,0.00,TxWx,2013-03-06 08:12:00,
2013-03-06 03:16:00,31.0,25.0,29.88,North,0,8.0,8.0,82,0.00,,,0.00,TxWx,2013-03-06 08:16:00,
2013-03-06 03:21:00,31.0,25.0,29.88,NNE,22,11.0,12.0,82,0.00,,,0.00,TxWx,2013-03-06 08:21:00,
2013-03-06 03:26:00,30.0,24.0,29.88,NNE,22,8.0,12.0,82,0.00,,,0.00,TxWx,2013-03-06 08:26:00,
2013-03-06 03:31:00,30.0,24.0,29.88,NNE,22,10.0,10.0,83,0.00,,,0.00,TxWx,2013-03-06 08:31:00,
2013-03-06 03:36:00,30.0,24.0,29.88,NNE,22,6.0,6.0,83,0.00,,,0.00,TxWx,2013-03-06 08:36:00,
2013-03-06 03:41:00,31.0,26.0,29.88,NE,45,10.0,10.0,84,0.00,,,0.00,TxWx,2013-03-06 08:41:00,
2013-03-06 03:46:00,31.0,26.0,29.88,NE,45,10.0,10.0,84,0.00,,,0.00,TxWx,2013-03-06 08:46:00,
2013-03-06 03:51:00,31.0,26.0,29.88,NNE,22,6.0,8.0,85,0.00,,,0.00,TxWx,2013-03-06 08:51:00,
2013-03-06 03:57:00,31.0,26.0,29.88,NE,45,11.0,12.0,86,0.00,,,0.00,TxWx,2013-03-06 08:57:00,
2013-03-06 04:02:00,31.0,26.0,29.89,NE,45,8.0,10.0,86,0.00,,,0.00,TxWx,2013-03-06 09:02:00,
2013-03-06 04:07:00,31.0,26.0,29.88,NNE,22,6.0,6.0,86,0.00,,,0.00,TxWx,2013-03-06 09:07:00,
2013-03-06 04:12:00,31.0,26.0,29.88,East,90,7.0,8.0,87,0.00,,,0.00,TxWx,2013-03-06 09:12:00,
2013-03-06 04:17:00,31.0,27.0,29.89,NE,45,6.0,8.0,87,0.00,,,0.00,TxWx,2013-03-06 09:17:00,
2013-03-06 04:22:00,30.0,26.0,29.89,NE,45,8.0,8.0,87,0.00,,,0.00,TxWx,2013-03-06 09:22:00,
2013-03-06 04:27:00,30.0,26.0,29.88,NNE,22,6.0,7.0,88,0.00,,,0.00,TxWx,2013-03-06 09:27:00,
2013-03-06 04:32:00,31.0,27.0,29.88,NNE,22,7.0,7.0,88,0.00,,,0.00,TxWx,2013-03-06 09:32:00,
2013-03-06 04:37:00,31.0,27.0,29.88,NE,45,10.0,10.0,88,0.00,,,0.00,TxWx,2013-03-06 09:37:00,
2013-03-06 04:42:00,31.0,26.0,29.88,NNE,22,5.0,5.0,88,0.00,,,0.00,TxWx,2013-03-06 09:42:00,
2013-03-06 04:47:00,30.0,26.0,29.88,North,0,5.0,6.0,88,0.00,,,0.00,TxWx,2013-03-06 09:47:00,
2013-03-06 04:52:00,30.0,26.0,29.88,North,0,4.0,5.0,88,0.00,,,0.00,TxWx,2013-03-06 09:52:00,
2013-03-06 04:57:00,30.0,26.0,29.88,NNE,22,6.0,8.0,89,0.00,,,0.00,TxWx,2013-03-06 09:57:00,
2013-03-06 05:02:00,30.0,26.0,29.88,NNE,22,6.0,6.0,89,0.00,,,0.00,TxWx,2013-03-06 10:02:00,
2013-03-06 05:08:00,30.0,26.0,29.88,North,0,5.0,7.0,90,0.00,,,0.00,TxWx,2013-03-06 10:08:00,
2013-03-06 05:13:00,30.0,26.0,29.88,NNE,22,5.0,7.0,90,0.00,,,0.00,TxWx,2013-03-06 10:13:00,
2013-03-06 05:18:00,30.0,26.0,29.88,NNE,22,6.0,6.0,90,0.00,,,0.00,TxWx,2013-03-06 10:18:00,
2013-03-06 05:23:00,30.0,26.0,29.88,NNE,22,5.0,6.0,90,0.00,,,0.00,TxWx,2013-03-06 10:23:00,
2013-03-06 05:28:00,29.0,25.0,29.88,NNE,22,5.0,5.0,89,0.00,,,0.00,TxWx,2013-03-06 10:28:00,
2013-03-06 05:33:00,29.0,26.0,29.88,NNE,22,8.0,8.0,91,0.00,,,0.00,TxWx,2013-03-06 10:33:00,
2013-03-06 05:38:00,27.0,24.0,29.89,NNE,22,8.0,8.0,91,0.00,,,0.00,TxWx,2013-03-06 10:38:00,
2013-03-06 05:43:00,28.0,25.0,29.89,NNE,22,8.0,10.0,92,0.00,,,0.00,TxWx,2013-03-06 10:43:00,
2013-03-06 05:48:00,27.0,24.0,29.89,NNE,22,8.0,8.0,93,0.00,,,0.00,TxWx,2013-03-06 10:48:00,
2013-03-06 05:53:00,27.0,24.0,29.89,NNE,22,6.0,6.0,93,0.00,,,0.00,TxWx,2013-03-06 10:53:00,
2013-03-06 05:58:00,27.0,24.0,29.89,NNE,22,8.0,8.0,94,0.00,,,0.00,TxWx,2013-03-06 10:58:00,
2013-03-06 06:03:00,28.0,26.0,29.89,NNE,22,8.0,10.0,95,0.00,,,0.00,TxWx,2013-03-06 11:03:00,
2013-03-06 06:08:00,28.0,26.0,29.89,NE,45,5.0,6.0,95,0.00,,,0.00,TxWx,2013-03-06 11:08:00,
2013-03-06 06:13:00,28.0,25.0,29.89,NE,45,11.0,11.0,94,0.00,,,0.00,TxWx,2013-03-06 11:13:00,
2013-03-06 06:19:00,28.0,26.0,29.89,North,0,9.0,10.0,95,0.00,,,0.00,TxWx,2013-03-06 11:19:00,
2013-03-06 06:24:00,28.0,26.0,29.89,NE,45,8.0,8.0,95,0.00,,,0.00,TxWx,2013-03-06 11:24:00,
2013-03-06 06:29:00,28.0,26.0,29.90,NE,45,5.0,7.0,94,0.00,,,0.00,TxWx,2013-03-06 11:29:00,
2013-03-06 06:34:00,29.0,26.0,29.90,NNE,22,5.0,6.0,94,0.00,,,0.00,TxWx,2013-03-06 11:34:00,
2013-03-06 06:39:00,30.0,27.0,29.90,NE,45,6.0,7.0,93,0.00,,,0.00,TxWx,2013-03-06 11:39:00,
2013-03-06 06:44:00,30.0,27.0,29.90,NE,45,5.0,6.0,92,0.00,,,0.00,TxWx,2013-03-06 11:44:00,
2013-03-06 06:49:00,30.0,26.0,29.90,NNW,337,6.0,6.0,90,0.00,,,0.00,TxWx,2013-03-06 11:49:00,
2013-03-06 06:54:00,28.0,23.0,29.90,NNE,22,6.0,7.0,90,0.00,,,0.00,TxWx,2013-03-06 11:54:00,
2013-03-06 06:59:00,27.0,24.0,29.90,North,0,6.0,7.0,92,0.00,,,0.00,TxWx,2013-03-06 11:59:00,
2013-03-06 07:04:00,28.0,25.0,29.90,NNE,22,6.0,9.0,94,0.00,,,0.00,TxWx,2013-03-06 12:04:00,
2013-03-06 07:09:00,28.0,25.0,29.90,North,0,7.0,8.0,94,0.00,,,0.00,TxWx,2013-03-06 12:09:00,
2013-03-06 07:14:00,28.0,25.0,29.90,NNE,22,4.0,7.0,94,0.00,,,0.00,TxWx,2013-03-06 12:14:00,
2013-03-06 07:20:00,27.0,25.0,29.90,NNE,22,5.0,5.0,94,0.00,,,0.00,TxWx,2013-03-06 12:20:00,
2013-03-06 07:25:00,27.0,25.0,29.90,North,0,3.0,5.0,94,0.00,,,0.00,TxWx,2013-03-06 12:25:00,
2013-03-06 07:30:00,27.0,25.0,29.90,NNW,337,5.0,5.0,95,0.00,,,0.00,TxWx,2013-03-06 12:30:00,
2013-03-06 07:35:00,27.0,25.0,29.90,NE,45,6.0,10.0,95,0.00,,,0.00,TxWx,2013-03-06 12:35:00,
2013-03-06 07:40:00,27.0,25.0,29.90,North,0,5.0,6.0,95,0.00,,,0.00,TxWx,2013-03-06 12:40:00,
2013-03-06 07:45:00,27.0,25.0,29.90,North,0,4.0,5.0,96,0.00,,,0.00,TxWx,2013-03-06 12:45:00,
2013-03-06 07:50:00,27.0,25.0,29.90,NNE,22,8.0,9.0,96,0.00,,,0.00,TxWx,2013-03-06 12:50:00,
2013-03-06 07:55:00,27.0,25.0,29.90,North,0,5.0,6.0,96,0.00,,,0.00,TxWx,2013-03-06 12:55:00,
2013-03-06 08:00:00,27.0,25.0,29.90,North,0,5.0,6.0,96,0.00,,,0.00,TxWx,2013-03-06 13:00:00,
2013-03-06 08:05:00,27.0,25.0,29.90,North,0,6.0,7.0,96,0.00,,,0.00,TxWx,2013-03-06 13:05:00,
2013-03-06 08:10:00,27.0,25.0,29.90,North,0,7.0,7.0,96,0.00,,,0.00,TxWx,2013-03-06 13:10:00,
2013-03-06 08:15:00,27.0,25.0,29.90,North,0,6.0,6.0,96,0.00,,,0.00,TxWx,2013-03-06 13:15:00,
2013-03-06 08:20:00,27.0,25.0,29.90,NNW,337,5.0,7.0,96,0.00,,,0.00,TxWx,2013-03-06 13:20:00,
2013-03-06 08:26:00,27.0,25.0,29.90,North,0,6.0,6.0,97,0.00,,,0.00,TxWx,2013-03-06 13:26:00,
2013-03-06 08:31:00,27.0,25.0,29.90,NNE,22,5.0,6.0,97,0.00,,,0.00,TxWx,2013-03-06 13:31:00,
2013-03-06 08:36:00,27.0,25.0,29.90,North,0,8.0,8.0,97,0.00,,,0.00,TxWx,2013-03-06 13:36:00,
2013-03-06 08:41:00,28.0,26.0,29.90,NNW,337,7.0,8.0,97,0.00,,,0.00,TxWx,2013-03-06 13:41:00,
2013-03-06 08:46:00,28.0,26.0,29.90,North,0,4.0,4.0,97,0.00,,,0.00,TxWx,2013-03-06 13:46:00,
2013-03-06 08:51:00,28.0,26.0,29.90,NNE,22,5.0,6.0,97,0.00,,,0.00,TxWx,2013-03-06 13:51:00,
2013-03-06 08:56:00,27.0,25.0,29.90,West,270,3.0,3.0,97,0.00,,,0.00,TxWx,2013-03-06 13:56:00,
2013-03-06 09:01:00,27.0,25.0,29.90,NW,315,2.0,3.0,97,0.00,,,0.00,TxWx,2013-03-06 14:01:00,
2013-03-06 09:06:00,27.0,25.0,29.90,NNW,337,3.0,5.0,97,0.00,,,0.00,TxWx,2013-03-06 14:06:00,
2013-03-06 09:11:00,27.0,25.0,29.90,NNW,337,3.0,3.0,98,0.00,,,0.00,TxWx,2013-03-06 14:11:00,
2013-03-06 09:16:00,28.0,27.0,29.90,North,0,3.0,5.0,98,0.00,,,0.00,TxWx,2013-03-06 14:16:00,
2013-03-06 09:21:00,28.0,26.0,29.91,NNW,337,4.0,5.0,98,0.00,,,0.00,TxWx,2013-03-06 14:21:00,
2013-03-06 09:27:00,28.0,26.0,29.91,NNW,337,5.0,5.0,98,0.00,,,0.00,TxWx,2013-03-06 14:27:00,
2013-03-06 09:32:00,28.0,26.0,29.91,North,0,3.0,3.0,98,0.00,,,0.00,TxWx,2013-03-06 14:32:00,
2013-03-06 09:37:00,28.0,26.0,29.91,NNW,337,4.0,5.0,98,0.00,,,0.00,TxWx,2013-03-06 14:37:00,
2013-03-06 09:42:00,28.0,26.0,29.91,NW,315,3.0,4.0,98,0.00,,,0.00,TxWx,2013-03-06 14:42:00,
2013-03-06 09:47:00,28.0,26.0,29.91,NNW,337,4.0,4.0,98,0.00,,,0.00,TxWx,2013-03-06 14:47:00,
2013-03-06 09:52:00,29.0,28.0,29.91,NNW,337,2.0,3.0,98,0.00,,,0.00,TxWx,2013-03-06 14:52:00,
2013-03-06 09:57:00,29.0,28.0,29.91,NNE,22,6.0,7.0,98,0.00,,,0.00,TxWx,2013-03-06 14:57:00,
2013-03-06 10:02:00,31.0,30.0,29.91,North,0,5.0,5.0,99,0.00,,,0.00,TxWx,2013-03-06 15:02:00,
2013-03-06 10:07:00,32.0,30.0,29.91,NNW,337,6.0,7.0,96,0.00,,,0.00,TxWx,2013-03-06 15:07:00,
2013-03-06 10:12:00,34.0,32.0,29.91,North,0,11.0,11.0,93,0.00,,,0.00,TxWx,2013-03-06 15:12:00,
2013-03-06 10:17:00,35.0,32.0,29.91,NNE,22,5.0,5.0,90,0.00,,,0.00,TxWx,2013-03-06 15:17:00,
2013-03-06 10:22:00,35.0,31.0,29.91,ENE,67,5.0,5.0,89,0.00,,,0.00,TxWx,2013-03-06 15:22:00,
2013-03-06 10:28:00,36.0,31.0,29.91,North,0,4.0,5.0,87,0.00,,,0.00,TxWx,2013-03-06 15:28:00,
2013-03-06 10:33:00,35.0,30.0,29.90,NE,45,11.0,11.0,86,0.00,,,0.00,TxWx,2013-03-06 15:33:00,
2013-03-06 10:38:00,35.0,30.0,29.91,NE,45,7.0,9.0,85,0.00,,,0.00,TxWx,2013-03-06 15:38:00,
2013-03-06 10:43:00,35.0,29.0,29.90,NE,45,7.0,9.0,83,0.00,,,0.00,TxWx,2013-03-06 15:43:00,
2013-03-06 10:48:00,36.0,30.0,29.90,North,0,11.0,15.0,82,0.00,,,0.00,TxWx,2013-03-06 15:48:00,
2013-03-06 10:53:00,36.0,29.0,29.90,NNE,22,12.0,17.0,80,0.00,,,0.00,TxWx,2013-03-06 15:53:00,
2013-03-06 10:58:00,36.0,29.0,29.90,NNE,22,12.0,12.0,79,0.00,,,0.00,TxWx,2013-03-06 15:58:00,
2013-03-06 11:03:00,36.0,28.0,29.90,NE,45,9.0,10.0,77,0.00,,,0.00,TxWx,2013-03-06 16:03:00,
2013-03-06 11:08:00,36.0,29.0,29.90,NE,45,5.0,7.0,78,0.00,,,0.00,TxWx,2013-03-06 16:08:00,
2013-03-06 11:13:00,37.0,29.0,29.91,NNE,22,6.0,8.0,77,0.00,,,0.00,TxWx,2013-03-06 16:13:00,
2013-03-06 11:18:00,37.0,29.0,29.91,NE,45,21.0,21.0,75,0.00,,,0.00,TxWx,2013-03-06 16:18:00,
2013-03-06 11:23:00,37.0,29.0,29.90,NNE,22,9.0,11.0,75,0.00,,,0.00,TxWx,2013-03-06 16:23:00,
2013-03-06 11:28:00,37.0,28.0,29.90,NE,45,6.0,11.0,74,0.00,,,0.00,TxWx,2013-03-06 16:28:00,
2013-03-06 11:34:00,36.0,27.0,29.90,NNE,22,8.0,12.0,73,0.00,,,0.00,TxWx,2013-03-06 16:34:00,
2013-03-06 11:39:00,36.0,28.0,29.91,North,0,11.0,11.0,74,0.00,,,0.00,TxWx,2013-03-06 16:39:00,
2013-03-06 11:44:00,36.0,28.0,29.91,NNE,22,13.0,16.0,76,0.00,,,0.00,TxWx,2013-03-06 16:44:00,
2013-03-06 11:49:00,36.0,28.0,29.91,NE,45,8.0,11.0,75,0.00,,,0.00,TxWx,2013-03-06 16:49:00,
2013-03-06 11:54:00,36.0,28.0,29.91,NNE,22,10.0,10.0,76,0.00,,,0.00,TxWx,2013-03-06 16:54:00,
2013-03-06 11:59:00,36.0,28.0,29.91,NE,45,11.0,14.0,75,0.00,,,0.00,TxWx,2013-03-06 16:59:00,
2013-03-06 12:04:00,36.0,28.0,29.91,ENE,67,5.0,6.0,74,0.00,,,0.00,TxWx,2013-03-06 17:04:00,
2013-03-06 12:09:00,36.0,27.0,29.92,NNE,22,9.0,9.0,74,0.00,,,0.00,TxWx,2013-03-06 17:09:00,
2013-03-06 12:14:00,36.0,28.0,29.92,NNE,22,5.0,5.0,74,0.00,,,0.00,TxWx,2013-03-06 17:14:00,
2013-03-06 12:19:00,35.0,26.0,29.92,ENE,67,11.0,17.0,74,0.00,,,0.00,TxWx,2013-03-06 17:19:00,
2013-03-06 12:24:00,35.0,27.0,29.92,NE,45,8.0,11.0,74,0.00,,,0.00,TxWx,2013-03-06 17:24:00,
2013-03-06 12:29:00,35.0,27.0,29.92,NNE,22,10.0,11.0,74,0.00,,,0.00,TxWx,2013-03-06 17:29:00,
2013-03-06 12:34:00,35.0,27.0,29.92,NE,45,10.0,11.0,74,0.00,,,0.00,TxWx,2013-03-06 17:34:00,
2013-03-06 12:39:00,35.0,26.0,29.92,NE,45,6.0,6.0,73,0.00,,,0.00,TxWx,2013-03-06 17:39:00,
2013-03-06 12:45:00,35.0,26.0,29.92,NNW,337,5.0,7.0,73,0.00,,,0.00,TxWx,2013-03-06 17:45:00,
2013-03-06 12:50:00,34.0,25.0,29.92,NE,45,14.0,16.0,73,0.00,,,0.00,TxWx,2013-03-06 17:50:00,
2013-03-06 12:55:00,34.0,25.0,29.92,NNE,22,13.0,13.0,73,0.00,,,0.00,TxWx,2013-03-06 17:55:00,
2013-03-06 13:00:00,35.0,26.0,29.92,ENE,67,7.0,8.0,72,0.00,,,0.00,TxWx,2013-03-06 18:00:00,
2013-03-06 13:05:00,35.0,26.0,29.92,NE,45,9.0,10.0,71,0.00,,,0.00,TxWx,2013-03-06 18:05:00,
2013-03-06 13:13:00,33.0,25.0,29.93,NE,45,9.0,10.0,76,0.00,,,0.00,TxWx,2013-03-06 18:13:00,
2013-03-06 13:18:00,33.0,26.0,29.93,North,0,5.0,6.0,79,0.00,,,0.00,TxWx,2013-03-06 18:18:00,
2013-03-06 13:23:00,32.0,26.0,29.93,North,0,8.0,10.0,81,0.00,,,0.00,TxWx,2013-03-06 18:23:00,
2013-03-06 13:28:00,33.0,27.0,29.93,North,0,13.0,13.0,83,0.00,,,0.00,TxWx,2013-03-06 18:28:00,
2013-03-06 13:33:00,33.0,27.0,29.93,NNE,22,10.0,11.0,83,0.00,,,0.00,TxWx,2013-03-06 18:33:00,
2013-03-06 13:38:00,34.0,28.0,29.93,NE,45,11.0,13.0,82,0.00,,,0.00,TxWx,2013-03-06 18:38:00,
2013-03-06 13:43:00,35.0,28.0,29.93,ENE,67,4.0,5.0,80,0.00,,,0.00,TxWx,2013-03-06 18:43:00,
2013-03-06 13:49:00,34.0,27.0,29.93,NNE,22,9.0,9.0,78,0.00,,,0.00,TxWx,2013-03-06 18:49:00,
2013-03-06 13:54:00,34.0,27.0,29.93,NNW,337,5.0,10.0,79,0.00,,,0.00,TxWx,2013-03-06 18:54:00,
2013-03-06 13:59:00,33.0,26.0,29.93,North,0,5.0,6.0,80,0.00,,,0.00,TxWx,2013-03-06 18:59:00,
2013-03-06 14:00:00,30.0,22.0,29.96,NNE,22,5.0,5.0,74,0.00,,,0.00,TxWx,2013-03-06 19:00:00,
2013-03-06 14:01:00,30.0,22.0,29.96,NE,45,3.0,3.0,74,0.00,,,0.00,TxWx,2013-03-06 19:01:00,
2013-03-06 14:02:00,29.0,21.0,29.96,NE,45,5.0,9.0,74,0.00,,,0.00,TxWx,2013-03-06 19:02:00,
2013-03-06 14:03:00,29.0,21.0,29.96,North,0,8.0,8.0,74,0.00,,,0.00,TxWx,2013-03-06 19:03:00,
2013-03-06 14:04:00,33.0,27.0,29.93,NNE,22,6.0,11.0,80,0.00,,,0.00,TxWx,2013-03-06 19:04:00,
2013-03-06 14:05:00,29.0,21.0,29.96,NE,45,5.0,6.0,74,0.00,,,0.00,TxWx,2013-03-06 19:05:00,
2013-03-06 14:06:00,30.0,22.0,29.96,North,0,2.0,2.0,74,0.00,,,0.00,TxWx,2013-03-06 19:06:00,
2013-03-06 14:09:00,33.0,26.0,29.93,NE,45,5.0,9.0,79,0.00,,,0.00,TxWx,2013-03-06 19:09:00,
2013-03-06 14:14:00,34.0,27.0,29.93,NNW,337,3.0,5.0,78,0.00,,,0.00,TxWx,2013-03-06 19:14:00,
2013-03-06 14:19:00,34.0,27.0,29.93,NNE,22,6.0,10.0,77,0.00,,,0.00,TxWx,2013-03-06 19:19:00,
2013-03-06 14:24:00,34.0,26.0,29.93,NNW,337,12.0,12.0,77,0.00,,,0.00,TxWx,2013-03-06 19:24:00,
2013-03-06 14:26:00,30.0,22.0,29.96,ESE,112,2.0,3.0,75,0.00,,,0.00,TxWx,2013-03-06 19:26:00,
2013-03-06 14:27:00,29.0,21.0,29.96,NNE,22,6.0,7.0,75,0.00,,,0.00,TxWx,2013-03-06 19:27:00,
2013-03-06 14:28:00,29.0,21.0,29.96,NNE,22,6.0,8.0,75,0.00,,,0.00,TxWx,2013-03-06 19:28:00,
2013-03-06 14:29:00,34.0,26.0,29.93,NNE,22,13.0,14.0,76,0.00,,,0.00,TxWx,2013-03-06 19:29:00,
2013-03-06 14:34:00,34.0,26.0,29.94,NNW,337,14.0,19.0,76,0.00,,,0.00,TxWx,2013-03-06 19:34:00,
2013-03-06 14:39:00,33.0,25.0,29.93,NE,45,8.0,12.0,75,0.00,,,0.00,TxWx,2013-03-06 19:39:00,
2013-03-06 14:45:00,34.0,26.0,29.93,NNW,337,8.0,11.0,75,0.00,,,0.00,TxWx,2013-03-06 19:45:00,
2013-03-06 14:50:00,34.0,26.0,29.94,NNW,337,8.0,10.0,75,0.00,,,0.00,TxWx,2013-03-06 19:50:00,
2013-03-06 14:55:00,34.0,26.0,29.93,NNE,22,6.0,10.0,75,0.00,,,0.00,TxWx,2013-03-06 19:55:00,
2013-03-06 14:57:00,29.0,22.0,29.96,North,0,10.0,10.0,77,0.00,,,0.00,TxWx,2013-03-06 19:57:00,
2013-03-06 14:58:00,29.0,22.0,29.96,NE,45,7.0,9.0,77,0.00,,,0.00,TxWx,2013-03-06 19:58:00,
2013-03-06 14:59:00,29.0,22.0,29.96,North,0,9.0,11.0,77,0.00,,,0.00,TxWx,2013-03-06 19:59:00,
2013-03-06 15:00:00,34.0,26.0,29.93,NNW,337,18.0,20.0,74,0.00,,,0.00,TxWx,2013-03-06 20:00:00,
2013-03-06 15:05:00,34.0,26.0,29.94,NNE,22,9.0,12.0,75,0.00,,,0.00,TxWx,2013-03-06 20:05:00,
2013-03-06 15:10:00,33.0,26.0,29.93,NNW,337,11.0,11.0,75,0.00,,,0.00,TxWx,2013-03-06 20:10:00,
2013-03-06 15:15:00,33.0,25.0,29.93,NW,315,13.0,13.0,76,0.00,,,0.00,TxWx,2013-03-06 20:15:00,
2013-03-06 15:20:00,33.0,25.0,29.93,NNE,22,8.0,13.0,75,0.00,,,0.00,TxWx,2013-03-06 20:20:00,
2013-03-06 15:25:00,33.0,25.0,29.93,NNW,337,6.0,6.0,75,0.00,,,0.00,TxWx,2013-03-06 20:25:00,
2013-03-06 15:30:00,34.0,26.0,29.94,North,0,11.0,11.0,74,0.00,,,0.00,TxWx,2013-03-06 20:30:00,
2013-03-06 15:35:00,34.0,25.0,29.93,NNW,337,10.0,10.0,74,0.00,,,0.00,TxWx,2013-03-06 20:35:00,
2013-03-06 15:40:00,34.0,25.0,29.93,NNE,22,4.0,6.0,74,0.00,,,0.00,TxWx,2013-03-06 20:40:00,
2013-03-06 15:46:00,34.0,25.0,29.94,NNW,337,13.0,13.0,73,0.00,,,0.00,TxWx,2013-03-06 20:46:00,
2013-03-06 15:51:00,34.0,24.0,29.93,NNE,22,7.0,8.0,74,0.00,,,0.00,TxWx,2013-03-06 20:51:00,
2013-03-06 15:56:00,33.0,24.0,29.93,NNE,22,13.0,18.0,73,0.00,,,0.00,TxWx,2013-03-06 20:56:00,
2013-03-06 16:01:00,33.0,24.0,29.94,NNE,22,7.0,12.0,73,0.00,,,0.00,TxWx,2013-03-06 21:01:00,
2013-03-06 16:06:00,33.0,24.0,29.93,East,90,5.0,7.0,73,0.00,,,0.00,TxWx,2013-03-06 21:06:00,
2013-03-06 16:07:00,28.0,21.0,29.96,North,0,9.0,9.0,79,0.00,,,0.00,TxWx,2013-03-06 21:07:00,
2013-03-06 16:09:00,28.0,21.0,29.96,North,0,7.0,7.0,79,0.00,,,0.00,TxWx,2013-03-06 21:09:00,
2013-03-06 16:11:00,33.0,24.0,29.94,NE,45,10.0,12.0,73,0.00,,,0.00,TxWx,2013-03-06 21:11:00,
2013-03-06 16:16:00,33.0,24.0,29.94,NE,45,3.0,4.0,73,0.00,,,0.00,TxWx,2013-03-06 21:16:00,
2013-03-06 16:21:00,33.0,24.0,29.94,NNW,337,10.0,10.0,73,0.00,,,0.00,TxWx,2013-03-06 21:21:00,
2013-03-06 16:22:00,29.0,22.0,29.96,NW,315,7.0,10.0,79,0.00,,,0.00,TxWx,2013-03-06 21:22:00,
2013-03-06 16:23:00,29.0,22.0,29.95,North,0,3.0,5.0,79,0.00,,,0.00,TxWx,2013-03-06 21:23:00,
2013-03-06 16:24:00,29.0,22.0,29.95,NW,315,7.0,7.0,79,0.00,,,0.00,TxWx,2013-03-06 21:24:00,
2013-03-06 16:25:00,29.0,22.0,29.95,NNW,337,3.0,4.0,79,0.00,,,0.00,TxWx,2013-03-06 21:25:00,
2013-03-06 16:26:00,33.0,24.0,29.94,North,0,8.0,8.0,73,0.00,,,0.00,TxWx,2013-03-06 21:26:00,
2013-03-06 16:31:00,33.0,24.0,29.94,West,270,2.0,3.0,73,0.00,,,0.00,TxWx,2013-03-06 21:31:00,
2013-03-06 16:36:00,33.0,24.0,29.94,North,0,3.0,4.0,74,0.00,,,0.00,TxWx,2013-03-06 21:36:00,
2013-03-06 16:41:00,33.0,24.0,29.94,NW,315,5.0,7.0,74,0.00,,,0.00,TxWx,2013-03-06 21:41:00,
2013-03-06 16:47:00,33.0,25.0,29.94,NNW,337,7.0,7.0,74,0.00,,,0.00,TxWx,2013-03-06 21:47:00,
2013-03-06 16:52:00,32.0,24.0,29.95,WNW,292,5.0,8.0,74,0.00,,,0.00,TxWx,2013-03-06 21:52:00,
2013-03-06 16:57:00,32.0,23.0,29.94,NE,45,5.0,8.0,74,0.00,,,0.00,TxWx,2013-03-06 21:57:00,
2013-03-06 17:02:00,32.0,24.0,29.94,North,0,4.0,6.0,74,0.00,,,0.00,TxWx,2013-03-06 22:02:00,
2013-03-06 17:07:00,32.0,24.0,29.95,NNE,22,5.0,16.0,74,0.00,,,0.00,TxWx,2013-03-06 22:07:00,
2013-03-06 17:12:00,32.0,24.0,29.95,NE,45,5.0,5.0,75,0.00,,,0.00,TxWx,2013-03-06 22:12:00,
2013-03-06 17:17:00,32.0,24.0,29.95,ENE,67,4.0,6.0,75,0.00,,,0.00,TxWx,2013-03-06 22:17:00,
2013-03-06 17:22:00,32.0,24.0,29.95,NW,315,6.0,7.0,75,0.00,,,0.00,TxWx,2013-03-06 22:22:00,
2013-03-06 17:27:00,32.0,24.0,29.95,NNE,22,10.0,10.0,75,0.00,,,0.00,TxWx,2013-03-06 22:27:00,
2013-03-06 17:32:00,31.0,23.0,29.95,North,0,5.0,5.0,76,0.00,,,0.00,TxWx,2013-03-06 22:32:00,
2013-03-06 17:37:00,31.0,23.0,29.96,NNE,22,9.0,11.0,76,0.00,,,0.00,TxWx,2013-03-06 22:37:00,
2013-03-06 17:43:00,31.0,23.0,29.96,NNW,337,15.0,15.0,76,0.00,,,0.00,TxWx,2013-03-06 22:43:00,
2013-03-06 17:48:00,31.0,23.0,29.96,North,0,8.0,9.0,76,0.00,,,0.00,TxWx,2013-03-06 22:48:00,
2013-03-06 17:53:00,31.0,23.0,29.96,NNE,22,8.0,11.0,77,0.00,,,0.00,TxWx,2013-03-06 22:53:00,
2013-03-06 17:58:00,30.0,23.0,29.97,NE,45,5.0,5.0,77,0.00,,,0.00,TxWx,2013-03-06 22:58:00,
2013-03-06 18:03:00,30.0,22.0,29.97,NE,45,8.0,8.0,76,0.00,,,0.00,TxWx,2013-03-06 23:03:00,
2013-03-06 18:08:00,31.0,23.0,29.97,NE,45,8.0,10.0,75,0.00,,,0.00,TxWx,2013-03-06 23:08:00,
2013-03-06 18:13:00,31.0,23.0,29.98,East,90,4.0,5.0,74,0.00,,,0.00,TxWx,2013-03-06 23:13:00,
2013-03-06 18:18:00,31.0,22.0,29.98,ENE,67,9.0,10.0,73,0.00,,,0.00,TxWx,2013-03-06 23:18:00,
2013-03-06 18:23:00,31.0,22.0,29.98,North,0,10.0,10.0,73,0.00,,,0.00,TxWx,2013-03-06 23:23:00,
2013-03-06 18:28:00,31.0,22.0,29.98,NE,45,13.0,16.0,72,0.00,,,0.00,TxWx,2013-03-06 23:28:00,
2013-03-06 18:33:00,31.0,22.0,29.98,NNE,22,10.0,13.0,71,0.00,,,0.00,TxWx,2013-03-06 23:33:00,
2013-03-06 18:38:00,31.0,22.0,29.98,ENE,67,6.0,8.0,71,0.00,,,0.00,TxWx,2013-03-06 23:38:00,
2013-03-06 18:44:00,31.0,22.0,29.98,NNW,337,10.0,13.0,71,0.00,,,0.00,TxWx,2013-03-06 23:44:00,
2013-03-06 18:49:00,31.0,21.0,29.99,NE,45,5.0,10.0,70,0.00,,,0.00,TxWx,2013-03-06 23:49:00,
2013-03-06 18:54:00,31.0,21.0,29.98,NW,315,4.0,7.0,70,0.00,,,0.00,TxWx,2013-03-06 23:54:00,
2013-03-06 18:59:00,31.0,21.0,29.98,North,0,8.0,8.0,70,0.00,,,0.00,TxWx,2013-03-06 23:59:00,
2013-03-06 19:04:00,31.0,21.0,29.98,NNW,337,14.0,14.0,70,0.00,,,0.00,TxWx,2013-03-07 00:04:00,
2013-03-06 19:09:00,31.0,21.0,29.98,North,0,3.0,3.0,69,0.00,,,0.00,TxWx,2013-03-07 00:09:00,
2013-03-06 19:14:00,31.0,21.0,29.98,East,90,5.0,5.0,69,0.00,,,0.00,TxWx,2013-03-07 00:14:00,
2013-03-06 19:19:00,31.0,21.0,29.98,NE,45,5.0,5.0,69,0.00,,,0.00,TxWx,2013-03-07 00:19:00,
2013-03-06 19:24:00,31.0,21.0,29.98,NE,45,5.0,5.0,69,0.00,,,0.00,TxWx,2013-03-07 00:24:00,
2013-03-06 19:29:00,31.0,21.0,29.98,NE,45,5.0,5.0,69,0.00,,,0.00,TxWx,2013-03-07 00:29:00,
2013-03-06 19:34:00,31.0,21.0,29.98,North,0,6.0,7.0,68,0.00,,,0.00,TxWx,2013-03-07 00:34:00,
2013-03-06 19:39:00,31.0,21.0,29.98,NE,45,4.0,6.0,68,0.00,,,0.00,TxWx,2013-03-07 00:39:00,
2013-03-06 19:44:00,31.0,21.0,29.98,NE,45,6.0,10.0,68,0.00,,,0.00,TxWx,2013-03-07 00:44:00,
2013-03-06 19:49:00,31.0,21.0,29.98,North,0,6.0,8.0,68,0.00,,,0.00,TxWx,2013-03-07 00:49:00,
2013-03-06 19:54:00,31.0,20.0,29.98,NNW,337,6.0,6.0,68,0.00,,,0.00,TxWx,2013-03-07 00:54:00,
2013-03-06 20:00:00,31.0,20.0,29.98,NNE,22,6.0,8.0,68,0.00,,,0.00,TxWx,2013-03-07 01:00:00,
2013-03-06 20:05:00,31.0,20.0,29.98,WSW,247,1.0,2.0,68,0.00,,,0.00,TxWx,2013-03-07 01:05:00,
2013-03-06 20:10:00,31.0,21.0,29.98,NW,315,6.0,8.0,68,0.00,,,0.00,TxWx,2013-03-07 01:10:00,
2013-03-06 20:15:00,31.0,20.0,29.98,NNW,337,5.0,8.0,68,0.00,,,0.00,TxWx,2013-03-07 01:15:00,
2013-03-06 20:20:00,31.0,20.0,29.98,WNW,292,4.0,4.0,68,0.00,,,0.00,TxWx,2013-03-07 01:20:00,
2013-03-06 20:25:00,31.0,21.0,29.98,NNW,337,5.0,7.0,68,0.00,,,0.00,TxWx,2013-03-07 01:25:00,
2013-03-06 20:30:00,30.0,20.0,29.97,NNW,337,8.0,9.0,68,0.00,,,0.00,TxWx,2013-03-07 01:30:00,
2013-03-06 20:35:00,30.0,20.0,29.97,NNW,337,5.0,5.0,69,0.00,,,0.00,TxWx,2013-03-07 01:35:00,
2013-03-06 20:40:00,30.0,20.0,29.97,West,270,5.0,6.0,69,0.00,,,0.00,TxWx,2013-03-07 01:40:00,
2013-03-06 20:45:00,31.0,21.0,29.97,NNE,22,3.0,5.0,69,0.00,,,0.00,TxWx,2013-03-07 01:45:00,
2013-03-06 20:50:00,30.0,20.0,29.97,NNE,22,6.0,6.0,69,0.00,,,0.00,TxWx,2013-03-07 01:50:00,
2013-03-06 20:55:00,31.0,21.0,29.97,NW,315,8.0,9.0,69,0.00,,,0.00,TxWx,2013-03-07 01:55:00,
2013-03-06 20:58:00,27.0,20.0,29.96,NNW,337,2.0,3.0,78,0.00,,,0.00,TxWx,2013-03-07 01:58:00,
2013-03-06 20:59:00,27.0,20.0,29.96,North,0,5.0,6.0,78,0.00,,,0.00,TxWx,2013-03-07 01:59:00,
2013-03-06 21:00:00,30.0,20.0,29.97,NW,315,8.0,10.0,69,0.00,,,0.00,TxWx,2013-03-07 02:00:00,
2013-03-06 21:01:00,27.0,20.0,29.96,NNW,337,5.0,5.0,78,0.00,,,0.00,TxWx,2013-03-07 02:01:00,
2013-03-06 21:06:00,30.0,20.0,29.97,NNW,337,3.0,4.0,69,0.00,,,0.00,TxWx,2013-03-07 02:06:00,
2013-03-06 21:11:00,30.0,20.0,29.97,ESE,112,3.0,3.0,70,0.00,,,0.00,TxWx,2013-03-07 02:11:00,
2013-03-06 21:16:00,30.0,20.0,29.97,NNW,337,6.0,6.0,70,0.00,,,0.00,TxWx,2013-03-07 02:16:00,
2013-03-06 21:21:00,30.0,21.0,29.97,NW,315,9.0,9.0,71,0.00,,,0.00,TxWx,2013-03-07 02:21:00,
2013-03-06 21:26:00,30.0,21.0,29.97,NNE,22,8.0,9.0,71,0.00,,,0.00,TxWx,2013-03-07 02:26:00,
2013-03-06 21:31:00,30.0,21.0,29.97,NW,315,5.0,5.0,71,0.00,,,0.00,TxWx,2013-03-07 02:31:00,
2013-03-06 21:36:00,30.0,21.0,29.97,ENE,67,3.0,3.0,72,0.00,,,0.00,TxWx,2013-03-07 02:36:00,
2013-03-06 21:41:00,30.0,21.0,29.97,NE,45,6.0,6.0,73,0.00,,,0.00,TxWx,2013-03-07 02:41:00,
2013-03-06 21:46:00,30.0,21.0,29.97,North,0,6.0,6.0,73,0.00,,,0.00,TxWx,2013-03-07 02:46:00,
2013-03-06 21:51:00,30.0,21.0,29.97,NNE,22,6.0,6.0,73,0.00,,,0.00,TxWx,2013-03-07 02:51:00,
2013-03-06 21:56:00,30.0,21.0,29.97,NE,45,6.0,8.0,73,0.00,,,0.00,TxWx,2013-03-07 02:56:00,
2013-03-06 22:01:00,30.0,21.0,29.97,North,0,4.0,7.0,73,0.00,,,0.00,TxWx,2013-03-07 03:01:00,
2013-03-06 22:06:00,30.0,21.0,29.97,NNW,337,6.0,6.0,73,0.00,,,0.00,TxWx,2013-03-07 03:06:00,
2013-03-06 22:11:00,30.0,21.0,29.97,NNE,22,3.0,5.0,73,0.00,,,0.00,TxWx,2013-03-07 03:11:00,
2013-03-06 22:17:00,30.0,21.0,29.97,North,0,3.0,6.0,73,0.00,,,0.00,TxWx,2013-03-07 03:17:00,
2013-03-06 22:22:00,30.0,21.0,29.97,West,270,4.0,7.0,73,0.00,,,0.00,TxWx,2013-03-07 03:22:00,
2013-03-06 22:27:00,30.0,21.0,29.97,NNW,337,10.0,11.0,72,0.00,,,0.00,TxWx,2013-03-07 03:27:00,
2013-03-06 22:32:00,30.0,21.0,29.97,NW,315,8.0,11.0,72,0.00,,,0.00,TxWx,2013-03-07 03:32:00,
2013-03-06 22:37:00,30.0,21.0,29.96,NNW,337,7.0,8.0,72,0.00,,,0.00,TxWx,2013-03-07 03:37:00,
2013-03-06 22:42:00,30.0,21.0,29.96,NE,45,3.0,4.0,72,0.00,,,0.00,TxWx,2013-03-07 03:42:00,
2013-03-06 22:47:00,30.0,21.0,29.97,NE,45,3.0,4.0,72,0.00,,,0.00,TxWx,2013-03-07 03:47:00,
2013-03-06 22:52:00,30.0,21.0,29.97,NNW,337,5.0,6.0,72,0.00,,,0.00,TxWx,2013-03-07 03:52:00,
2013-03-06 22:57:00,30.0,21.0,29.97,NE,45,5.0,6.0,72,0.00,,,0.00,TxWx,2013-03-07 03:57:00,
2013-03-06 23:02:00,30.0,21.0,29.96,NNW,337,10.0,12.0,73,0.00,,,0.00,TxWx,2013-03-07 04:02:00,
2013-03-06 23:07:00,30.0,21.0,29.96,North,0,8.0,11.0,73,0.00,,,0.00,TxWx,2013-03-07 04:07:00,
2013-03-06 23:12:00,30.0,21.0,29.97,NNW,337,6.0,9.0,73,0.00,,,0.00,TxWx,2013-03-07 04:12:00,
2013-03-06 23:17:00,30.0,21.0,29.97,NNE,22,4.0,5.0,73,0.00,,,0.00,TxWx,2013-03-07 04:17:00,
2013-03-06 23:23:00,30.0,21.0,29.97,North,0,4.0,5.0,73,0.00,,,0.00,TxWx,2013-03-07 04:23:00,
2013-03-06 23:28:00,30.0,22.0,29.96,NNW,337,4.0,6.0,74,0.00,,,0.00,TxWx,2013-03-07 04:28:00,
2013-03-06 23:33:00,30.0,21.0,29.97,NNW,337,8.0,8.0,73,0.00,,,0.00,TxWx,2013-03-07 04:33:00,
2013-03-06 23:38:00,30.0,22.0,29.97,NNW,337,7.0,10.0,74,0.00,,,0.00,TxWx,2013-03-07 04:38:00,
2013-03-06 23:43:00,30.0,22.0,29.96,NNE,22,8.0,8.0,74,0.00,,,0.00,TxWx,2013-03-07 04:43:00,
2013-03-06 23:48:00,30.0,22.0,29.96,SE,135,1.0,2.0,74,0.00,,,0.00,TxWx,2013-03-07 04:48:00,
2013-03-06 23:53:00,30.0,22.0,29.96,NW,315,2.0,2.0,74,0.00,,,0.00,TxWx,2013-03-07 04:53:00,
2013-03-06 23:58:00,30.0,22.0,29.96,NNW,337,10.0,11.0,74,0.00,,,0.00,TxWx,2013-03-07 04:58:00,